RYR71LM LEVC-LIRF

Flight info

Callsign RYR71LM
Flight time 1h 42m
Altitude 36000
Route ORVUS M871 PTC N851 MHN M603 MORSS DCT BAVON DCT ORKUM DCT ELSAG DCT ALG DCT TINTO DCT VALMA
Aircraft B738/M-SDE2E3FGHIRWXY/LB1

Departure

Time 2026-05-06 20:58
Airport Valencia Airport (LEVC)

Arrival

Time 2026-05-06 22:41
Airport Rome–Fiumicino Leonardo da Vinci International Airport (LIRF)
Time Latitude Longitude Altitude Speed Heading
2026-05-06 20:06 39.49051 -0.47386 208 ft 0 kts 22°
2026-05-06 20:50 39.49030 -0.47398 212 ft 4 kts 31°
2026-05-06 20:50 39.49009 -0.47419 214 ft 4 kts 51°
2026-05-06 20:50 39.48997 -0.47448 218 ft 4 kts 82°
2026-05-06 20:51 39.48998 -0.47476 214 ft 1 kts 116°
2026-05-06 20:51 39.48999 -0.47476 214 ft 2 kts 116°
2026-05-06 20:54 39.48996 -0.47468 208 ft 5 kts 116°
2026-05-06 20:54 39.48969 -0.47397 211 ft 10 kts 116°
2026-05-06 20:54 39.48938 -0.47315 209 ft 10 kts 116°
2026-05-06 20:54 39.48894 -0.47248 208 ft 10 kts 152°
2026-05-06 20:55 39.48830 -0.47209 212 ft 11 kts 156°
2026-05-06 20:55 39.48748 -0.47143 214 ft 17 kts 128°
2026-05-06 20:55 39.48684 -0.46981 208 ft 23 kts 116°
2026-05-06 20:55 39.48608 -0.46802 211 ft 11 kts 126°
2026-05-06 20:56 39.48607 -0.46799 210 ft 0 kts 127°
2026-05-06 20:56 39.48604 -0.46796 209 ft 2 kts 128°
2026-05-06 20:56 39.48573 -0.46752 208 ft 11 kts 136°
2026-05-06 20:56 39.48478 -0.46688 209 ft 19 kts 172°
2026-05-06 20:57 39.48396 -0.46728 212 ft 2 kts 249°
2026-05-06 20:57 39.48396 -0.46750 212 ft 2 kts 279°
2026-05-06 20:57 39.48400 -0.46762 216 ft 0 kts 294°
2026-05-06 20:57 39.48400 -0.46763 216 ft 0 kts 294°
2026-05-06 20:58 39.48428 -0.46841 212 ft 39 kts 295°
2026-05-06 20:58 39.48704 -0.47562 215 ft 136 kts 296°
2026-05-06 20:58 39.49253 -0.48915 582 ft 184 kts 298°
2026-05-06 20:58 39.49841 -0.50384 1919 ft 183 kts 296°
2026-05-06 20:59 39.50441 -0.51928 2930 ft 199 kts 296°
2026-05-06 20:59 39.51116 -0.53623 3335 ft 230 kts 297°
2026-05-06 20:59 39.51890 -0.55550 3830 ft 248 kts 297°
2026-05-06 20:59 39.52713 -0.57600 4328 ft 268 kts 296°
2026-05-06 21:00 39.53185 -0.59947 5157 ft 275 kts 264°
2026-05-06 21:00 39.52597 -0.62269 5758 ft 273 kts 233°
2026-05-06 21:00 39.51143 -0.63790 5988 ft 271 kts 200°
2026-05-06 21:00 39.49303 -0.64154 6005 ft 269 kts 172°
2026-05-06 21:01 39.47492 -0.63580 6010 ft 269 kts 161°
2026-05-06 21:01 39.45667 -0.63011 6000 ft 270 kts 165°
2026-05-06 21:01 39.43898 -0.62196 6019 ft 271 kts 154°
2026-05-06 21:01 39.42236 -0.61019 6572 ft 275 kts 146°
2026-05-06 21:02 39.40719 -0.59513 7657 ft 275 kts 137°
2026-05-06 21:02 39.39390 -0.57675 8515 ft 285 kts 128°
2026-05-06 21:02 39.38286 -0.55505 9410 ft 292 kts 118°
2026-05-06 21:02 39.37471 -0.53077 10307 ft 299 kts 108°
2026-05-06 21:03 39.36962 -0.50373 10690 ft 324 kts 98°
2026-05-06 21:03 39.36767 -0.47372 11176 ft 342 kts 92°
2026-05-06 21:03 39.36658 -0.44267 11978 ft 349 kts 92°
2026-05-06 21:03 39.36560 -0.41117 12869 ft 354 kts 92°
2026-05-06 21:04 39.36459 -0.37917 13735 ft 359 kts 92°
2026-05-06 21:04 39.36350 -0.34667 14484 ft 365 kts 93°
2026-05-06 21:04 39.36233 -0.31366 15262 ft 370 kts 93°
2026-05-06 21:04 39.36110 -0.28028 16028 ft 375 kts 94°
2026-05-06 21:05 39.35982 -0.24637 16785 ft 380 kts 94°
2026-05-06 21:05 39.35849 -0.21198 17543 ft 386 kts 94°
2026-05-06 21:05 39.35713 -0.17709 18278 ft 391 kts 94°
2026-05-06 21:05 39.35573 -0.14178 18931 ft 396 kts 94°
2026-05-06 21:06 39.35431 -0.10611 19615 ft 400 kts 94°
2026-05-06 21:06 39.35286 -0.06999 20279 ft 404 kts 94°
2026-05-06 21:06 39.35139 -0.03362 20919 ft 408 kts 95°
2026-05-06 21:06 39.34990 0.00312 21567 ft 412 kts 95°
2026-05-06 21:07 39.34837 0.04038 22118 ft 418 kts 95°
2026-05-06 21:07 39.34680 0.07819 22721 ft 423 kts 95°
2026-05-06 21:07 39.34523 0.11575 23336 ft 427 kts 95°
2026-05-06 21:07 39.34361 0.15427 23857 ft 431 kts 95°
2026-05-06 21:08 39.34195 0.19322 24316 ft 436 kts 96°
2026-05-06 21:08 39.34027 0.23260 24769 ft 441 kts 96°
2026-05-06 21:08 39.33856 0.27233 25231 ft 446 kts 96°
2026-05-06 21:08 39.33682 0.31255 25679 ft 450 kts 96°
2026-05-06 21:09 39.33506 0.35307 26127 ft 455 kts 96°
2026-05-06 21:09 39.33325 0.39408 26545 ft 459 kts 97°
2026-05-06 21:09 39.33142 0.43547 26938 ft 465 kts 96°
2026-05-06 21:09 39.33096 0.47753 27357 ft 471 kts 91°
2026-05-06 21:10 39.33248 0.51997 27793 ft 475 kts 89°
2026-05-06 21:10 39.33487 0.56275 28203 ft 480 kts 88°
2026-05-06 21:10 39.33749 0.60588 28597 ft 484 kts 88°
2026-05-06 21:10 39.34003 0.64937 28985 ft 488 kts 89°
2026-05-06 21:11 39.34238 0.69317 29372 ft 491 kts 89°
2026-05-06 21:11 39.34456 0.73744 29749 ft 495 kts 90°
2026-05-06 21:11 39.34658 0.78195 30083 ft 498 kts 90°
2026-05-06 21:11 39.34853 0.82672 30417 ft 501 kts 90°
2026-05-06 21:12 39.35043 0.87172 30747 ft 504 kts 90°
2026-05-06 21:12 39.35168 0.90173 30926 ft 506 kts 90°
2026-05-06 21:12 39.35356 0.94723 31282 ft 508 kts 90°
2026-05-06 21:12 39.35545 0.99272 31745 ft 506 kts 90°
2026-05-06 21:13 39.35795 1.05326 32382 ft 504 kts 91°
2026-05-06 21:13 39.35917 1.08320 32654 ft 504 kts 91°
2026-05-06 21:13 39.36101 1.12844 33035 ft 504 kts 91°
2026-05-06 21:13 39.36282 1.17368 33412 ft 504 kts 91°
2026-05-06 21:14 39.36462 1.21895 33844 ft 503 kts 91°
2026-05-06 21:14 39.36639 1.26402 34229 ft 502 kts 91°
2026-05-06 21:14 39.36816 1.30912 34590 ft 502 kts 90°
2026-05-06 21:14 39.36989 1.35402 34955 ft 500 kts 90°
2026-05-06 21:15 39.37161 1.39897 35343 ft 499 kts 90°
2026-05-06 21:15 39.37330 1.44357 35735 ft 497 kts 90°
2026-05-06 21:15 39.37496 1.48817 35980 ft 499 kts 90°
2026-05-06 21:16 39.37826 1.57835 35958 ft 504 kts 90°
2026-05-06 21:16 39.38151 1.66821 35945 ft 496 kts 90°
2026-05-06 21:17 39.38466 1.75719 35970 ft 496 kts 90°
2026-05-06 21:17 39.38773 1.84625 35970 ft 496 kts 90°
2026-05-06 21:18 39.39073 1.93552 35954 ft 497 kts 90°
2026-05-06 21:18 39.39368 2.02479 35968 ft 497 kts 90°
2026-05-06 21:19 39.39656 2.11420 35973 ft 498 kts 90°
2026-05-06 21:19 39.39938 2.20377 35970 ft 499 kts 90°
2026-05-06 21:20 39.40211 2.29286 35954 ft 499 kts 90°
2026-05-06 21:20 39.40479 2.38251 35971 ft 499 kts 90°
2026-05-06 21:21 39.40740 2.47216 35982 ft 499 kts 91°
2026-05-06 21:21 39.40995 2.56175 35986 ft 499 kts 91°
2026-05-06 21:22 39.41242 2.65146 35989 ft 499 kts 91°
2026-05-06 21:22 39.41482 2.74091 35985 ft 498 kts 91°
2026-05-06 21:23 39.41716 2.83045 35978 ft 498 kts 91°
2026-05-06 21:23 39.41942 2.91980 35979 ft 497 kts 91°
2026-05-06 21:24 39.42161 3.00912 35979 ft 497 kts 91°
2026-05-06 21:24 39.42374 3.09839 35978 ft 496 kts 91°
2026-05-06 21:25 39.42584 3.18761 35991 ft 496 kts 90°
2026-05-06 21:25 39.43000 3.23203 35973 ft 499 kts 79°
2026-05-06 21:25 39.43935 3.27522 35986 ft 500 kts 70°
2026-05-06 21:25 39.45321 3.31641 35966 ft 499 kts 59°
2026-05-06 21:26 39.47076 3.35513 35989 ft 498 kts 57°
2026-05-06 21:26 39.50700 3.43163 35985 ft 499 kts 57°
2026-05-06 21:27 39.54302 3.50852 35984 ft 499 kts 58°
2026-05-06 21:27 39.57856 3.58587 35980 ft 500 kts 58°
2026-05-06 21:28 39.61391 3.66345 35980 ft 500 kts 58°
2026-05-06 21:28 39.64927 3.74122 35978 ft 500 kts 58°
2026-05-06 21:29 39.68461 3.81906 35977 ft 500 kts 58°
2026-05-06 21:29 39.71988 3.89692 35985 ft 500 kts 58°
2026-05-06 21:30 39.75510 3.97486 35998 ft 500 kts 58°
2026-05-06 21:30 39.79028 4.05293 35992 ft 500 kts 58°
2026-05-06 21:31 39.82540 4.13104 35998 ft 500 kts 58°
2026-05-06 21:31 39.85957 4.20918 35978 ft 501 kts 64°
2026-05-06 21:31 39.87253 4.25186 35985 ft 500 kts 75°
2026-05-06 21:32 39.88151 4.29484 36001 ft 499 kts 76°
2026-05-06 21:32 39.90731 4.42617 35990 ft 499 kts 76°
2026-05-06 21:33 39.92519 4.51354 35991 ft 499 kts 76°
2026-05-06 21:33 39.94321 4.60079 36000 ft 498 kts 76°
2026-05-06 21:34 39.96120 4.68813 35990 ft 499 kts 75°
2026-05-06 21:34 39.98079 4.77484 35989 ft 499 kts 73°
2026-05-06 21:35 40.00099 4.86134 35989 ft 499 kts 73°
2026-05-06 21:35 40.02108 4.94864 35990 ft 499 kts 74°
2026-05-06 21:36 40.04063 5.03482 36001 ft 498 kts 74°
2026-05-06 21:36 40.06018 5.12160 35991 ft 498 kts 74°
2026-05-06 21:37 40.07964 5.20829 35997 ft 498 kts 74°
2026-05-06 21:37 40.09908 5.29516 35993 ft 498 kts 74°
2026-05-06 21:38 40.11844 5.38201 35986 ft 497 kts 74°
2026-05-06 21:38 40.13770 5.46877 35993 ft 497 kts 75°
2026-05-06 21:39 40.15693 5.55572 35992 ft 497 kts 75°
2026-05-06 21:39 40.17606 5.64255 35991 ft 497 kts 75°
2026-05-06 21:40 40.19514 5.72951 35977 ft 497 kts 75°
2026-05-06 21:40 40.21413 5.81643 35999 ft 497 kts 75°
2026-05-06 21:41 40.23293 5.90277 35989 ft 497 kts 75°
2026-05-06 21:41 40.25181 5.98984 35989 ft 497 kts 75°
2026-05-06 21:42 40.27061 6.07688 35993 ft 497 kts 75°
2026-05-06 21:42 40.28931 6.16381 35992 ft 496 kts 75°
2026-05-06 21:43 40.30795 6.25080 36010 ft 496 kts 75°
2026-05-06 21:43 40.32652 6.33778 35995 ft 496 kts 75°
2026-05-06 21:44 40.34505 6.42496 35995 ft 496 kts 75°
2026-05-06 21:44 40.36352 6.51221 35985 ft 496 kts 75°
2026-05-06 21:45 40.38189 6.59935 35991 ft 496 kts 75°
2026-05-06 21:45 40.40019 6.68651 35991 ft 496 kts 76°
2026-05-06 21:46 40.41842 6.77370 35996 ft 495 kts 76°
2026-05-06 21:46 40.43659 6.86092 35975 ft 495 kts 76°
2026-05-06 21:47 40.45466 6.94808 35983 ft 494 kts 76°
2026-05-06 21:47 40.47262 7.03503 35992 ft 493 kts 76°
2026-05-06 21:48 40.49049 7.12193 35993 ft 493 kts 76°
2026-05-06 21:48 40.50817 7.20829 35994 ft 492 kts 76°
2026-05-06 21:49 40.52588 7.29511 35993 ft 492 kts 76°
2026-05-06 21:49 40.54350 7.38189 35994 ft 491 kts 76°
2026-05-06 21:50 40.56105 7.46870 35994 ft 491 kts 77°
2026-05-06 21:50 40.57212 7.55698 36000 ft 489 kts 86°
2026-05-06 21:51 40.57873 7.64599 35986 ft 488 kts 86°
2026-05-06 21:51 40.58568 7.73490 35993 ft 488 kts 86°
2026-05-06 21:52 40.59319 7.82370 35992 ft 488 kts 85°
2026-05-06 21:52 40.60075 7.91248 35994 ft 488 kts 85°
2026-05-06 21:53 40.60818 8.00132 35982 ft 488 kts 85°
2026-05-06 21:53 40.61554 8.09020 35992 ft 488 kts 85°
2026-05-06 21:54 40.62285 8.17895 36015 ft 488 kts 86°
2026-05-06 21:54 40.63460 8.26702 35987 ft 491 kts 72°
2026-05-06 21:55 40.66036 8.35022 35970 ft 491 kts 67°
2026-05-06 21:55 40.68737 8.43287 35987 ft 490 kts 67°
2026-05-06 21:56 40.71392 8.51571 35997 ft 490 kts 68°
2026-05-06 21:56 40.73983 8.59809 36001 ft 489 kts 68°
2026-05-06 21:57 40.76573 8.68106 35998 ft 489 kts 68°
2026-05-06 21:57 40.78737 8.75058 35991 ft 488 kts 68°
2026-05-06 21:58 40.81728 8.84687 35999 ft 487 kts 68°
2026-05-06 21:58 40.83860 8.91566 36004 ft 487 kts 68°
2026-05-06 21:59 40.86431 8.99890 36001 ft 486 kts 68°
2026-05-06 21:59 40.88962 9.08107 36007 ft 486 kts 68°
2026-05-06 22:00 40.91517 9.16430 35995 ft 485 kts 68°
2026-05-06 22:00 40.94047 9.24694 35995 ft 485 kts 68°
2026-05-06 22:01 40.96571 9.32965 35999 ft 485 kts 68°
2026-05-06 22:01 40.99092 9.41245 35997 ft 485 kts 69°
2026-05-06 22:02 41.01589 9.49485 35981 ft 486 kts 69°
2026-05-06 22:02 41.04099 9.57792 35992 ft 486 kts 69°
2026-05-06 22:03 41.06574 9.66004 35970 ft 471 kts 69°
2026-05-06 22:03 41.07770 9.69979 35964 ft 458 kts 69°
2026-05-06 22:03 41.08945 9.73893 35939 ft 455 kts 69°
2026-05-06 22:04 41.10112 9.77785 35490 ft 455 kts 69°
2026-05-06 22:04 41.11281 9.81692 34860 ft 458 kts 69°
2026-05-06 22:04 41.12460 9.85641 34223 ft 462 kts 69°
2026-05-06 22:04 41.13637 9.89587 33852 ft 458 kts 69°
2026-05-06 22:05 41.14805 9.93503 33399 ft 455 kts 69°
2026-05-06 22:05 41.15967 9.97407 32899 ft 454 kts 69°
2026-05-06 22:05 41.17121 10.01292 32450 ft 452 kts 69°
2026-05-06 22:05 41.18271 10.05169 32040 ft 449 kts 69°
2026-05-06 22:06 41.19411 10.09017 31639 ft 447 kts 70°
2026-05-06 22:06 41.20544 10.12849 31238 ft 444 kts 70°
2026-05-06 22:06 41.21671 10.16663 30830 ft 443 kts 70°
2026-05-06 22:06 41.22790 10.20460 30410 ft 441 kts 69°
2026-05-06 22:07 41.23903 10.24235 30093 ft 437 kts 70°
2026-05-06 22:07 41.25003 10.27973 29700 ft 433 kts 70°
2026-05-06 22:07 41.26093 10.31687 29278 ft 430 kts 70°
2026-05-06 22:07 41.27175 10.35380 28766 ft 429 kts 70°
2026-05-06 22:08 41.28252 10.39058 28375 ft 425 kts 70°
2026-05-06 22:08 41.29320 10.42714 27990 ft 422 kts 70°
2026-05-06 22:08 41.30376 10.46327 27643 ft 418 kts 70°
2026-05-06 22:08 41.31424 10.49922 27269 ft 415 kts 70°
2026-05-06 22:09 41.32461 10.53482 26901 ft 411 kts 70°
2026-05-06 22:09 41.33487 10.57013 26548 ft 408 kts 70°
2026-05-06 22:09 41.34505 10.60517 26194 ft 404 kts 70°
2026-05-06 22:09 41.35512 10.63993 25847 ft 401 kts 70°
2026-05-06 22:10 41.36510 10.67437 25515 ft 398 kts 70°
2026-05-06 22:10 41.37500 10.70863 25166 ft 395 kts 70°
2026-05-06 22:10 41.38482 10.74264 24826 ft 392 kts 70°
2026-05-06 22:10 41.39458 10.77648 24489 ft 390 kts 70°
2026-05-06 22:11 41.40425 10.81004 24153 ft 387 kts 70°
2026-05-06 22:11 41.41386 10.84347 23812 ft 385 kts 70°
2026-05-06 22:11 41.42343 10.87675 23444 ft 384 kts 70°
2026-05-06 22:11 41.43291 10.90982 23061 ft 381 kts 70°
2026-05-06 22:12 41.44237 10.94278 22711 ft 378 kts 70°
2026-05-06 22:12 41.45170 10.97539 22366 ft 375 kts 70°
2026-05-06 22:12 41.46095 11.00775 22026 ft 372 kts 70°
2026-05-06 22:12 41.47012 11.03986 21708 ft 369 kts 70°
2026-05-06 22:13 41.47909 11.07134 21383 ft 366 kts 70°
2026-05-06 22:13 41.48809 11.10310 21211 ft 358 kts 71°
2026-05-06 22:13 41.49668 11.13360 20912 ft 355 kts 71°
2026-05-06 22:13 41.50533 11.16437 20594 ft 353 kts 71°
2026-05-06 22:14 41.51391 11.19494 20285 ft 350 kts 71°
2026-05-06 22:14 41.52243 11.22526 19986 ft 349 kts 71°
2026-05-06 22:14 41.53093 11.25561 19644 ft 349 kts 71°
2026-05-06 22:14 41.53941 11.28590 19330 ft 347 kts 71°
2026-05-06 22:15 41.54783 11.31602 19017 ft 346 kts 71°
2026-05-06 22:15 41.55622 11.34602 18696 ft 344 kts 71°
2026-05-06 22:15 41.56457 11.37591 18385 ft 342 kts 71°
2026-05-06 22:15 41.57286 11.40563 18036 ft 341 kts 71°
2026-05-06 22:16 41.58111 11.43518 17693 ft 338 kts 71°
2026-05-06 22:16 41.58938 11.46449 17405 ft 336 kts 71°
2026-05-06 22:16 41.59761 11.49356 17091 ft 334 kts 71°
2026-05-06 22:16 41.60580 11.52255 16768 ft 333 kts 71°
2026-05-06 22:17 41.61394 11.55138 16477 ft 330 kts 71°
2026-05-06 22:17 41.62203 11.58005 16168 ft 329 kts 71°
2026-05-06 22:17 41.63004 11.60855 15863 ft 327 kts 71°
2026-05-06 22:17 41.63801 11.63689 15551 ft 325 kts 71°
2026-05-06 22:18 41.64590 11.66503 15256 ft 323 kts 71°
2026-05-06 22:18 41.65376 11.69311 14963 ft 321 kts 71°
2026-05-06 22:18 41.66159 11.72104 14669 ft 322 kts 71°
2026-05-06 22:18 41.66942 11.74906 14348 ft 321 kts 72°
2026-05-06 22:19 41.67721 11.77696 14042 ft 319 kts 72°
2026-05-06 22:19 41.68495 11.80470 13735 ft 318 kts 72°
2026-05-06 22:19 41.69266 11.83236 13397 ft 316 kts 72°
2026-05-06 22:19 41.70031 11.85981 13081 ft 313 kts 72°
2026-05-06 22:20 41.70782 11.88685 13038 ft 309 kts 72°
2026-05-06 22:20 41.71531 11.91388 13011 ft 309 kts 72°
2026-05-06 22:20 41.72269 11.94047 13005 ft 301 kts 72°
2026-05-06 22:20 41.72985 11.96632 12968 ft 290 kts 72°
2026-05-06 22:21 41.73722 11.99082 12929 ft 281 kts 63°
2026-05-06 22:21 41.75075 12.01015 12598 ft 290 kts 32°
2026-05-06 22:21 41.76967 12.01878 12408 ft 290 kts
2026-05-06 22:21 41.78944 12.01612 12333 ft 285 kts 343°
2026-05-06 22:22 41.80848 12.00845 12254 ft 287 kts 340°
2026-05-06 22:22 41.82760 12.00007 12164 ft 291 kts 340°
2026-05-06 22:22 41.84685 11.99157 12067 ft 291 kts 340°
2026-05-06 22:22 41.86601 11.98319 11973 ft 289 kts 340°
2026-05-06 22:23 41.88515 11.97491 11886 ft 288 kts 340°
2026-05-06 22:23 41.90418 11.96673 11812 ft 288 kts 340°
2026-05-06 22:23 41.92331 11.95855 11713 ft 288 kts 340°
2026-05-06 22:23 41.94243 11.95036 11631 ft 290 kts 340°
2026-05-06 22:24 41.96169 11.94208 11564 ft 292 kts 341°
2026-05-06 22:24 41.98087 11.93399 11457 ft 293 kts 341°
2026-05-06 22:24 42.00029 11.92576 11356 ft 291 kts 340°
2026-05-06 22:24 42.01935 11.91768 11264 ft 284 kts 340°
2026-05-06 22:25 42.03825 11.90965 11181 ft 280 kts 340°
2026-05-06 22:25 42.05655 11.90187 11109 ft 279 kts 340°
2026-05-06 22:25 42.07504 11.89400 11009 ft 272 kts 340°
2026-05-06 22:25 42.09275 11.88645 10849 ft 270 kts 340°
2026-05-06 22:26 42.11081 11.87872 10657 ft 268 kts 340°
2026-05-06 22:26 42.12854 11.87115 10468 ft 267 kts 340°
2026-05-06 22:26 42.14603 11.86368 10268 ft 266 kts 340°
2026-05-06 22:26 42.16362 11.85616 10085 ft 265 kts 340°
2026-05-06 22:27 42.18141 11.84854 9890 ft 264 kts 340°
2026-05-06 22:27 42.19893 11.84104 9661 ft 264 kts 340°
2026-05-06 22:27 42.21617 11.83366 9456 ft 263 kts 340°
2026-05-06 22:27 42.23382 11.82610 9250 ft 262 kts 340°
2026-05-06 22:28 42.25093 11.81876 9086 ft 262 kts 340°
2026-05-06 22:28 42.26855 11.81119 9018 ft 262 kts 340°
2026-05-06 22:28 42.28556 11.80390 9009 ft 257 kts 340°
2026-05-06 22:28 42.30322 11.80069 8988 ft 253 kts
2026-05-06 22:29 42.31917 11.80964 8999 ft 250 kts 39°
2026-05-06 22:29 42.33015 11.82749 9006 ft 249 kts 65°
2026-05-06 22:29 42.33643 11.84948 9016 ft 253 kts 74°
2026-05-06 22:29 42.34158 11.87192 9005 ft 254 kts 75°
2026-05-06 22:30 42.34670 11.89468 9007 ft 252 kts 77°
2026-05-06 22:30 42.34768 11.91813 9001 ft 244 kts 108°
2026-05-06 22:30 42.34025 11.93756 9003 ft 234 kts 136°
2026-05-06 22:30 42.32760 11.95071 9016 ft 230 kts 158°
2026-05-06 22:31 42.31248 11.95802 9023 ft 233 kts 165°
2026-05-06 22:31 42.29691 11.96452 9015 ft 234 kts 165°
2026-05-06 22:31 42.28137 11.97103 8964 ft 233 kts 165°
2026-05-06 22:31 42.26602 11.97745 8806 ft 231 kts 165°
2026-05-06 22:32 42.25066 11.98393 8578 ft 231 kts 165°
2026-05-06 22:32 42.23539 11.99039 8475 ft 230 kts 165°
2026-05-06 22:32 42.22019 11.99675 8329 ft 228 kts 165°
2026-05-06 22:32 42.20501 12.00326 8041 ft 230 kts 165°
2026-05-06 22:33 42.18979 12.00978 7848 ft 228 kts 165°
2026-05-06 22:33 42.17473 12.01623 7669 ft 227 kts 165°
2026-05-06 22:33 42.15970 12.02263 7427 ft 227 kts 165°
2026-05-06 22:33 42.14467 12.02904 7221 ft 226 kts 165°
2026-05-06 22:34 42.12975 12.03540 7025 ft 225 kts 165°
2026-05-06 22:34 42.11562 12.04431 6789 ft 228 kts 141°
2026-05-06 22:34 42.10495 12.05974 6652 ft 223 kts 136°
2026-05-06 22:34 42.09448 12.07518 6383 ft 224 kts 136°
2026-05-06 22:35 42.08393 12.09065 6127 ft 224 kts 136°
2026-05-06 22:35 42.07350 12.10593 5969 ft 221 kts 136°
2026-05-06 22:35 42.06317 12.12108 5780 ft 219 kts 136°
2026-05-06 22:35 42.05283 12.13621 5544 ft 220 kts 136°
2026-05-06 22:36 42.04254 12.15123 5442 ft 218 kts 136°
2026-05-06 22:36 42.03221 12.16629 5252 ft 218 kts 136°
2026-05-06 22:36 42.02215 12.18101 5049 ft 217 kts 136°
2026-05-06 22:36 42.01050 12.19343 4838 ft 212 kts 162°
2026-05-06 22:37 41.99653 12.19881 4653 ft 208 kts 166°
2026-05-06 22:37 41.98274 12.20421 4534 ft 201 kts 166°
2026-05-06 22:37 41.97007 12.20933 4311 ft 181 kts 165°
2026-05-06 22:37 41.95863 12.21409 4085 ft 165 kts 165°
2026-05-06 22:38 41.94755 12.21872 3595 ft 166 kts 165°
2026-05-06 22:38 41.93653 12.22335 3087 ft 167 kts 164°
2026-05-06 22:38 41.92610 12.22778 2817 ft 143 kts 165°
2026-05-06 22:38 41.91670 12.23172 2298 ft 141 kts 165°
2026-05-06 22:39 41.90741 12.23559 1841 ft 139 kts 165°
2026-05-06 22:39 41.89824 12.23944 1383 ft 138 kts 165°
2026-05-06 22:39 41.88904 12.24331 983 ft 137 kts 165°
2026-05-06 22:39 41.87973 12.24722 755 ft 142 kts 163°
2026-05-06 22:40 41.87043 12.25113 505 ft 140 kts 162°
2026-05-06 22:40 41.86095 12.25511 350 ft 149 kts 160°
2026-05-06 22:40 41.85122 12.25934 164 ft 147 kts 161°
2026-05-06 22:40 41.84151 12.26330 30 ft 139 kts 160°
2026-05-06 22:41 41.82771 12.26920 19 ft 62 kts 162°
2026-05-06 22:41 41.82482 12.27040 12 ft 34 kts 163°
2026-05-06 22:41 41.82251 12.27119 10 ft 34 kts 167°
2026-05-06 22:42 41.82026 12.27126 7 ft 32 kts 189°
2026-05-06 22:42 41.81915 12.27097 10 ft 8 kts 192°
2026-05-06 22:42 41.81864 12.27082 12 ft 8 kts 192°
2026-05-06 22:42 41.81778 12.27059 14 ft 19 kts 191°
2026-05-06 22:43 41.81622 12.27073 18 ft 23 kts 162°
2026-05-06 22:43 41.81520 12.27117 19 ft 23 kts 162°
2026-05-06 22:43 41.81323 12.27202 14 ft 23 kts 163°
2026-05-06 22:43 41.81222 12.27243 13 ft 23 kts 163°
2026-05-06 22:44 41.81073 12.27303 11 ft 22 kts 162°
2026-05-06 22:44 41.80926 12.27350 12 ft 21 kts 180°
2026-05-06 22:44 41.80781 12.27323 12 ft 21 kts 189°
2026-05-06 22:44 41.80658 12.27239 13 ft 20 kts 239°
2026-05-06 22:45 41.80610 12.27062 13 ft 20 kts 249°
2026-05-06 22:45 41.80561 12.26890 13 ft 19 kts 250°
2026-05-06 22:45 41.80516 12.26717 14 ft 20 kts 249°
2026-05-06 22:45 41.80468 12.26549 14 ft 19 kts 249°
2026-05-06 22:46 41.80413 12.26389 12 ft 19 kts 224°
2026-05-06 22:46 41.80298 12.26388 13 ft 10 kts 176°
2026-05-06 22:46 41.80232 12.26397 15 ft 9 kts 173°
2026-05-06 22:46 41.80170 12.26383 17 ft 9 kts 205°
2026-05-06 22:47 41.80090 12.26331 17 ft 18 kts 206°
2026-05-06 22:47 41.79977 12.26259 17 ft 18 kts 205°
2026-05-06 22:47 41.79867 12.26192 20 ft 17 kts 206°
2026-05-06 22:47 41.79839 12.26059 18 ft 17 kts 291°
2026-05-06 22:48 41.79885 12.25919 19 ft 16 kts 293°
2026-05-06 22:48 41.79845 12.25798 17 ft 16 kts 210°
2026-05-06 22:48 41.79748 12.25736 17 ft 15 kts 204°
2026-05-06 22:48 41.79712 12.25734 17 ft 5 kts 176°
2026-05-06 22:49 41.79683 12.25764 18 ft 6 kts 120°
2026-05-06 22:49 41.79666 12.25810 18 ft 0 kts 116°
2026-05-06 22:49 41.79664 12.25814 20 ft 1 kts 116°
2026-05-06 22:49 41.79661 12.25823 19 ft 0 kts 115°